Year,Month,Day,Hour,Minute,Value (Times are PST for insolation in W/m^2)
2019,03,28,00,00,0.00
2019,03,28,00,01,0.00
2019,03,28,00,02,0.00
2019,03,28,00,03,0.00
2019,03,28,00,04,0.00
2019,03,28,00,05,0.00
2019,03,28,00,06,0.00
2019,03,28,00,07,0.00
2019,03,28,00,08,0.00
2019,03,28,00,09,0.00
2019,03,28,00,10,0.00
2019,03,28,00,11,0.00
2019,03,28,00,12,0.00
2019,03,28,00,13,0.00
2019,03,28,00,14,0.00
2019,03,28,00,15,0.00
2019,03,28,00,16,0.00
2019,03,28,00,17,0.00
2019,03,28,00,18,0.00
2019,03,28,00,19,0.00
2019,03,28,00,20,0.00
2019,03,28,00,21,0.00
2019,03,28,00,22,0.00
2019,03,28,00,23,0.00
2019,03,28,00,24,0.00
2019,03,28,00,25,0.00
2019,03,28,00,26,0.00
2019,03,28,00,27,0.00
2019,03,28,00,28,0.00
2019,03,28,00,29,0.00
2019,03,28,00,30,0.00
2019,03,28,00,31,0.00
2019,03,28,00,32,0.00
2019,03,28,00,33,0.00
2019,03,28,00,34,0.00
2019,03,28,00,35,0.00
2019,03,28,00,36,0.00
2019,03,28,00,37,0.00
2019,03,28,00,38,0.00
2019,03,28,00,39,0.00
2019,03,28,00,40,0.00
2019,03,28,00,41,0.00
2019,03,28,00,42,0.00
2019,03,28,00,43,0.00
2019,03,28,00,44,0.00
2019,03,28,00,45,0.00
2019,03,28,00,46,0.00
2019,03,28,00,47,0.00
2019,03,28,00,48,0.00
2019,03,28,00,49,0.00
2019,03,28,00,50,0.00
2019,03,28,00,51,0.00
2019,03,28,00,52,0.00
2019,03,28,00,53,0.00
2019,03,28,00,54,0.00
2019,03,28,00,55,0.00
2019,03,28,00,56,0.00
2019,03,28,00,57,0.00
2019,03,28,00,58,0.00
2019,03,28,00,59,0.00
2019,03,28,01,00,0.00
2019,03,28,01,01,0.00
2019,03,28,01,02,0.00
2019,03,28,01,03,0.00
2019,03,28,01,04,0.00
2019,03,28,01,05,0.00
2019,03,28,01,06,0.00
2019,03,28,01,07,0.00
2019,03,28,01,08,0.00
2019,03,28,01,09,0.00
2019,03,28,01,10,0.00
2019,03,28,01,11,0.00
2019,03,28,01,12,0.00
2019,03,28,01,13,0.00
2019,03,28,01,14,0.00
2019,03,28,01,15,0.00
2019,03,28,01,16,0.00
2019,03,28,01,17,0.00
2019,03,28,01,18,0.00
2019,03,28,01,19,0.00
2019,03,28,01,20,0.00
2019,03,28,01,21,0.00
2019,03,28,01,22,0.00
2019,03,28,01,23,0.00
2019,03,28,01,24,0.00
2019,03,28,01,25,0.00
2019,03,28,01,26,0.00
2019,03,28,01,27,0.00
2019,03,28,01,28,0.00
2019,03,28,01,29,0.00
2019,03,28,01,30,0.00
2019,03,28,01,31,0.00
2019,03,28,01,32,0.00
2019,03,28,01,33,0.00
2019,03,28,01,34,0.00
2019,03,28,01,35,0.00
2019,03,28,01,36,0.00
2019,03,28,01,37,0.00
2019,03,28,01,38,0.00
2019,03,28,01,39,0.00
2019,03,28,01,40,0.00
2019,03,28,01,41,0.00
2019,03,28,01,42,0.00
2019,03,28,01,43,0.00
2019,03,28,01,44,0.00
2019,03,28,01,45,0.00
2019,03,28,01,46,0.00
2019,03,28,01,47,0.00
2019,03,28,01,48,0.00
2019,03,28,01,49,0.00
2019,03,28,01,50,0.00
2019,03,28,01,51,0.00
2019,03,28,01,52,0.00
2019,03,28,01,53,0.00
2019,03,28,01,54,0.00
2019,03,28,01,55,0.00
2019,03,28,01,56,0.00
2019,03,28,01,57,0.00
2019,03,28,01,58,0.00
2019,03,28,01,59,0.00
2019,03,28,02,00,0.00
2019,03,28,02,01,0.00
2019,03,28,02,02,0.00
2019,03,28,02,03,0.00
2019,03,28,02,04,0.00
2019,03,28,02,05,0.00
2019,03,28,02,06,0.00
2019,03,28,02,07,0.00
2019,03,28,02,08,0.00
2019,03,28,02,09,0.00
2019,03,28,02,10,0.00
2019,03,28,02,11,0.00
2019,03,28,02,12,0.00
2019,03,28,02,13,0.00
2019,03,28,02,14,0.00
2019,03,28,02,15,0.00
2019,03,28,02,16,0.00
2019,03,28,02,17,0.00
2019,03,28,02,18,0.00
2019,03,28,02,19,0.00
2019,03,28,02,20,0.00
2019,03,28,02,21,0.00
2019,03,28,02,22,0.00
2019,03,28,02,23,0.00
2019,03,28,02,24,0.00
2019,03,28,02,25,0.00
2019,03,28,02,26,0.00
2019,03,28,02,27,0.00
2019,03,28,02,28,0.00
2019,03,28,02,29,0.00
2019,03,28,02,30,0.00
2019,03,28,02,31,0.00
2019,03,28,02,32,0.00
2019,03,28,02,33,0.00
2019,03,28,02,34,0.00
2019,03,28,02,35,0.00
2019,03,28,02,36,0.00
2019,03,28,02,37,0.00
2019,03,28,02,38,0.00
2019,03,28,02,39,0.00
2019,03,28,02,40,0.00
2019,03,28,02,41,0.00
2019,03,28,02,42,0.00
2019,03,28,02,43,0.00
2019,03,28,02,44,0.00
2019,03,28,02,45,0.00
2019,03,28,02,46,0.00
2019,03,28,02,47,0.00
2019,03,28,02,48,0.00
2019,03,28,02,49,0.00
2019,03,28,02,50,0.00
2019,03,28,02,51,0.00
2019,03,28,02,52,0.00
2019,03,28,02,53,0.00
2019,03,28,02,54,0.00
2019,03,28,02,55,0.00
2019,03,28,02,56,0.00
2019,03,28,02,57,0.00
2019,03,28,02,58,0.00
2019,03,28,02,59,0.00
2019,03,28,03,00,0.00
2019,03,28,03,01,0.00
2019,03,28,03,02,0.00
2019,03,28,03,03,0.00
2019,03,28,03,04,0.00
2019,03,28,03,05,0.00
2019,03,28,03,06,0.00
2019,03,28,03,07,0.00
2019,03,28,03,08,0.00
2019,03,28,03,09,0.00
2019,03,28,03,10,0.00
2019,03,28,03,11,0.00
2019,03,28,03,12,0.00
2019,03,28,03,13,0.00
2019,03,28,03,14,0.00
2019,03,28,03,15,0.00
2019,03,28,03,16,0.00
2019,03,28,03,17,0.00
2019,03,28,03,18,0.00
2019,03,28,03,19,0.00
2019,03,28,03,20,0.00
2019,03,28,03,21,0.00
2019,03,28,03,22,0.00
2019,03,28,03,23,0.00
2019,03,28,03,24,0.00
2019,03,28,03,25,0.00
2019,03,28,03,26,0.00
2019,03,28,03,27,0.00
2019,03,28,03,28,0.00
2019,03,28,03,29,0.00
2019,03,28,03,30,0.00
2019,03,28,03,31,0.00
2019,03,28,03,32,0.00
2019,03,28,03,33,0.00
2019,03,28,03,34,0.00
2019,03,28,03,35,0.00
2019,03,28,03,36,0.00
2019,03,28,03,37,0.00
2019,03,28,03,38,0.00
2019,03,28,03,39,0.00
2019,03,28,03,40,0.00
2019,03,28,03,41,0.00
2019,03,28,03,42,0.00
2019,03,28,03,43,0.00
2019,03,28,03,44,0.00
2019,03,28,03,45,0.00
2019,03,28,03,46,0.00
2019,03,28,03,47,0.00
2019,03,28,03,48,0.00
2019,03,28,03,49,0.00
2019,03,28,03,50,0.00
2019,03,28,03,51,0.00
2019,03,28,03,52,0.00
2019,03,28,03,53,0.00
2019,03,28,03,54,0.00
2019,03,28,03,55,0.00
2019,03,28,03,56,0.00
2019,03,28,03,57,0.00
2019,03,28,03,58,0.00
2019,03,28,03,59,0.00
2019,03,28,04,00,0.00
2019,03,28,04,01,0.00
2019,03,28,04,02,0.00
2019,03,28,04,03,0.00
2019,03,28,04,04,0.00
2019,03,28,04,05,0.00
2019,03,28,04,06,0.00
2019,03,28,04,07,0.00
2019,03,28,04,08,0.00
2019,03,28,04,09,0.00
2019,03,28,04,10,0.00
2019,03,28,04,11,0.00
2019,03,28,04,12,0.00
2019,03,28,04,13,0.00
2019,03,28,04,14,0.00
2019,03,28,04,15,0.00
2019,03,28,04,16,0.00
2019,03,28,04,17,0.00
2019,03,28,04,18,0.00
2019,03,28,04,19,0.00
2019,03,28,04,20,0.00
2019,03,28,04,21,0.00
2019,03,28,04,22,0.00
2019,03,28,04,23,0.00
2019,03,28,04,24,0.00
2019,03,28,04,25,0.00
2019,03,28,04,26,0.00
2019,03,28,04,27,0.00
2019,03,28,04,28,0.00
2019,03,28,04,29,0.00
2019,03,28,04,30,0.00
2019,03,28,04,31,0.00
2019,03,28,04,32,0.00
2019,03,28,04,33,0.00
2019,03,28,04,34,0.00
2019,03,28,04,35,0.00
2019,03,28,04,36,0.00
2019,03,28,04,37,0.00
2019,03,28,04,38,0.00
2019,03,28,04,39,0.00
2019,03,28,04,40,0.00
2019,03,28,04,41,0.00
2019,03,28,04,42,0.00
2019,03,28,04,43,0.00
2019,03,28,04,44,0.00
2019,03,28,04,45,0.00
2019,03,28,04,46,0.00
2019,03,28,04,47,0.00
2019,03,28,04,48,0.00
2019,03,28,04,49,0.00
2019,03,28,04,50,0.00
2019,03,28,04,51,0.00
2019,03,28,04,52,0.00
2019,03,28,04,53,0.00
2019,03,28,04,54,0.00
2019,03,28,04,55,0.00
2019,03,28,04,56,0.00
2019,03,28,04,57,0.00
2019,03,28,04,58,0.00
2019,03,28,04,59,0.00
2019,03,28,05,00,0.00
2019,03,28,05,01,0.00
2019,03,28,05,02,0.00
2019,03,28,05,03,0.00
2019,03,28,05,04,0.00
2019,03,28,05,05,0.00
2019,03,28,05,06,0.00
2019,03,28,05,07,0.00
2019,03,28,05,08,0.00
2019,03,28,05,09,0.00
2019,03,28,05,10,0.00
2019,03,28,05,11,0.00
2019,03,28,05,12,0.00
2019,03,28,05,13,0.00
2019,03,28,05,14,0.00
2019,03,28,05,15,0.00
2019,03,28,05,16,0.00
2019,03,28,05,17,0.00
2019,03,28,05,18,0.00
2019,03,28,05,19,0.00
2019,03,28,05,20,0.00
2019,03,28,05,21,0.00
2019,03,28,05,22,0.00
2019,03,28,05,23,0.00
2019,03,28,05,24,0.00
2019,03,28,05,25,0.00
2019,03,28,05,26,0.00
2019,03,28,05,27,0.00
2019,03,28,05,28,0.00
2019,03,28,05,29,0.00
2019,03,28,05,30,0.00
2019,03,28,05,31,0.00
2019,03,28,05,32,0.00
2019,03,28,05,33,0.00
2019,03,28,05,34,0.00
2019,03,28,05,35,0.00
2019,03,28,05,36,0.00
2019,03,28,05,37,0.00
2019,03,28,05,38,0.00
2019,03,28,05,39,0.00
2019,03,28,05,40,0.00
2019,03,28,05,41,0.00
2019,03,28,05,42,0.00
2019,03,28,05,43,0.00
2019,03,28,05,44,0.00
2019,03,28,05,45,0.00
2019,03,28,05,46,0.00
2019,03,28,05,47,0.00
2019,03,28,05,48,0.00
2019,03,28,05,49,0.00
2019,03,28,05,50,0.00
2019,03,28,05,51,0.00
2019,03,28,05,52,0.00
2019,03,28,05,53,0.00
2019,03,28,05,54,0.00
2019,03,28,05,55,0.00
2019,03,28,05,56,0.00
2019,03,28,05,57,0.00
2019,03,28,05,58,0.00
2019,03,28,05,59,0.00
2019,03,28,06,00,0.00
2019,03,28,06,01,0.00
2019,03,28,06,02,0.00
2019,03,28,06,03,0.00
2019,03,28,06,04,0.00
2019,03,28,06,05,0.00
2019,03,28,06,06,0.00
2019,03,28,06,07,0.00
2019,03,28,06,08,0.00
2019,03,28,06,09,0.00
2019,03,28,06,10,0.00
2019,03,28,06,11,0.00
2019,03,28,06,12,0.00
2019,03,28,06,13,0.00
2019,03,28,06,14,0.00
2019,03,28,06,15,0.00
2019,03,28,06,16,0.00
2019,03,28,06,17,0.00
2019,03,28,06,18,0.00
2019,03,28,06,19,0.00
2019,03,28,06,20,0.00
2019,03,28,06,21,0.00
2019,03,28,06,22,0.00
2019,03,28,06,23,0.00
2019,03,28,06,24,0.00
2019,03,28,06,25,0.00
2019,03,28,06,26,0.00
2019,03,28,06,27,0.00
2019,03,28,06,28,0.00
2019,03,28,06,29,0.00
2019,03,28,06,30,0.00
2019,03,28,06,31,0.00
2019,03,28,06,32,0.00
2019,03,28,06,33,0.00
2019,03,28,06,34,0.00
2019,03,28,06,35,0.00
2019,03,28,06,36,0.00
2019,03,28,06,37,0.00
2019,03,28,06,38,0.00
2019,03,28,06,39,0.00
2019,03,28,06,40,0.00
2019,03,28,06,41,0.00
2019,03,28,06,42,0.00
2019,03,28,06,43,0.00
2019,03,28,06,44,0.00
2019,03,28,06,45,0.00
2019,03,28,06,46,0.00
2019,03,28,06,47,0.00
2019,03,28,06,48,0.00
2019,03,28,06,49,0.00
2019,03,28,06,50,0.00
2019,03,28,06,51,0.00
2019,03,28,06,52,0.00
2019,03,28,06,53,0.00
2019,03,28,06,54,0.00
2019,03,28,06,55,0.00
2019,03,28,06,56,0.00
2019,03,28,06,57,0.00
2019,03,28,06,58,0.00
2019,03,28,06,59,0.00
2019,03,28,07,00,0.00
2019,03,28,07,01,0.00
2019,03,28,07,02,0.00
2019,03,28,07,03,0.00
2019,03,28,07,04,0.00
2019,03,28,07,05,0.00
2019,03,28,07,06,0.00
2019,03,28,07,07,0.00
2019,03,28,07,08,0.00
2019,03,28,07,09,0.00
2019,03,28,07,10,0.00
2019,03,28,07,11,0.00
2019,03,28,07,12,0.00
2019,03,28,07,13,0.00
2019,03,28,07,14,0.00
2019,03,28,07,15,0.00
2019,03,28,07,16,0.00
2019,03,28,07,17,0.00
2019,03,28,07,18,0.00
2019,03,28,07,19,0.00
2019,03,28,07,20,0.00
2019,03,28,07,21,0.00
2019,03,28,07,22,0.00
2019,03,28,07,23,0.00
2019,03,28,07,24,0.00
2019,03,28,07,25,0.00
2019,03,28,07,26,0.00
2019,03,28,07,27,0.00
2019,03,28,07,28,0.00
2019,03,28,07,29,0.00
2019,03,28,07,30,0.00
2019,03,28,07,31,0.00
2019,03,28,07,32,0.00
2019,03,28,07,33,0.00
2019,03,28,07,34,0.00
2019,03,28,07,35,0.00
2019,03,28,07,36,0.00
2019,03,28,07,37,0.00
2019,03,28,07,38,0.00
2019,03,28,07,39,0.00
2019,03,28,07,40,0.00
2019,03,28,07,41,0.00
2019,03,28,07,42,0.00
2019,03,28,07,43,0.00
2019,03,28,07,44,0.00
2019,03,28,07,45,0.00
2019,03,28,07,46,0.00
2019,03,28,07,47,0.00
2019,03,28,07,48,0.00
2019,03,28,07,49,0.00
2019,03,28,07,50,0.00
2019,03,28,07,51,0.00
2019,03,28,07,52,0.00
2019,03,28,07,53,0.00
2019,03,28,07,54,0.00
2019,03,28,07,55,3.00
2019,03,28,07,56,5.00
2019,03,28,07,57,5.00
2019,03,28,07,58,5.00
2019,03,28,07,59,5.00
2019,03,28,08,00,6.00
2019,03,28,08,01,7.00
2019,03,28,08,02,7.00
2019,03,28,08,03,7.00
2019,03,28,08,04,7.40
2019,03,28,08,05,9.00
2019,03,28,08,06,10.00
2019,03,28,08,07,11.00
2019,03,28,08,08,11.80
2019,03,28,08,09,12.20
2019,03,28,08,10,14.50
2019,03,28,08,11,16.00
2019,03,28,08,12,17.10
2019,03,28,08,13,18.70
2019,03,28,08,14,19.00
2019,03,28,08,15,20.90
2019,03,28,08,16,21.00
2019,03,28,08,17,21.00
2019,03,28,08,18,21.00
2019,03,28,08,19,21.00
2019,03,28,08,20,21.00
2019,03,28,08,21,21.00
2019,03,28,08,22,21.00
2019,03,28,08,23,21.00
2019,03,28,08,24,21.00
2019,03,28,08,25,19.60
2019,03,28,08,26,19.00
2019,03,28,08,27,19.00
2019,03,28,08,28,19.00
2019,03,28,08,29,19.00
2019,03,28,08,30,19.00
2019,03,28,08,31,19.00
2019,03,28,08,32,19.00
2019,03,28,08,33,19.00
2019,03,28,08,34,19.60
2019,03,28,08,35,21.00
2019,03,28,08,36,22.30
2019,03,28,08,37,23.00
2019,03,28,08,38,24.80
2019,03,28,08,39,25.20
2019,03,28,08,40,26.70
2019,03,28,08,41,29.00
2019,03,28,08,42,30.00
2019,03,28,08,43,31.60
2019,03,28,08,44,32.10
2019,03,28,08,45,33.00
2019,03,28,08,46,33.80
2019,03,28,08,47,35.00
2019,03,28,08,48,36.40
2019,03,28,08,49,37.00
2019,03,28,08,50,38.90
2019,03,28,08,51,39.30
2019,03,28,08,52,40.00
2019,03,28,08,53,40.00
2019,03,28,08,54,40.00
2019,03,28,08,55,40.00
2019,03,28,08,56,40.20
2019,03,28,08,57,42.00
2019,03,28,08,58,42.00
2019,03,28,08,59,42.00
2019,03,28,09,00,40.60
2019,03,28,09,01,40.00
2019,03,28,09,02,39.00
2019,03,28,09,03,39.00
2019,03,28,09,04,39.00
2019,03,28,09,05,39.00
2019,03,28,09,06,39.70
2019,03,28,09,07,40.10
2019,03,28,09,08,42.00
2019,03,28,09,09,42.00
2019,03,28,09,10,42.00
2019,03,28,09,11,42.00
2019,03,28,09,12,43.50
2019,03,28,09,13,45.90
2019,03,28,09,14,47.40
2019,03,28,09,15,49.00
2019,03,28,09,16,50.00
2019,03,28,09,17,52.30
2019,03,28,09,18,53.00
2019,03,28,09,19,53.90
2019,03,28,09,20,54.00
2019,03,28,09,21,54.70
2019,03,28,09,22,56.00
2019,03,28,09,23,56.00
2019,03,28,09,24,56.00
2019,03,28,09,25,56.10
2019,03,28,09,26,58.00
2019,03,28,09,27,58.00
2019,03,28,09,28,58.00
2019,03,28,09,29,58.00
2019,03,28,09,30,59.60
2019,03,28,09,31,59.80
2019,03,28,09,32,58.00
2019,03,28,09,33,58.00
2019,03,28,09,34,56.90
2019,03,28,09,35,56.00
2019,03,28,09,36,56.00
2019,03,28,09,37,54.10
2019,03,28,09,38,53.70
2019,03,28,09,39,53.00
2019,03,28,09,40,53.60
2019,03,28,09,41,54.00
2019,03,28,09,42,55.70
2019,03,28,09,43,56.30
2019,03,28,09,44,59.10
2019,03,28,09,45,62.00
2019,03,28,09,46,62.60
2019,03,28,09,47,64.40
2019,03,28,09,48,66.80
2019,03,28,09,49,67.00
2019,03,28,09,50,67.60
2019,03,28,09,51,69.00
2019,03,28,09,52,69.60
2019,03,28,09,53,70.00
2019,03,28,09,54,70.00
2019,03,28,09,55,70.00
2019,03,28,09,56,69.70
2019,03,28,09,57,69.00
2019,03,28,09,58,69.00
2019,03,28,09,59,69.00
2019,03,28,10,00,67.10
2019,03,28,10,01,67.00
2019,03,28,10,02,66.30
2019,03,28,10,03,65.00
2019,03,28,10,04,65.00
2019,03,28,10,05,63.40
2019,03,28,10,06,63.10
2019,03,28,10,07,65.00
2019,03,28,10,08,65.70
2019,03,28,10,09,68.00
2019,03,28,10,10,69.60
2019,03,28,10,11,70.00
2019,03,28,10,12,72.10
2019,03,28,10,13,74.50
2019,03,28,10,14,76.40
2019,03,28,10,15,77.00
2019,03,28,10,16,78.40
2019,03,28,10,17,80.70
2019,03,28,10,18,81.30
2019,03,28,10,19,83.30
2019,03,28,10,20,84.80
2019,03,28,10,21,87.10
2019,03,28,10,22,89.40
2019,03,28,10,23,90.90
2019,03,28,10,24,93.30
2019,03,28,10,25,95.60
2019,03,28,10,26,97.40
2019,03,28,10,27,99.10
2019,03,28,10,28,101.50
2019,03,28,10,29,102.00
2019,03,28,10,30,104.10
2019,03,28,10,31,105.00
2019,03,28,10,32,105.90
2019,03,28,10,33,108.20
2019,03,28,10,34,110.50
2019,03,28,10,35,112.80
2019,03,28,10,36,113.20
2019,03,28,10,37,114.70
2019,03,28,10,38,117.00
2019,03,28,10,39,118.00
2019,03,28,10,40,119.50
2019,03,28,10,41,120.00
2019,03,28,10,42,120.00
2019,03,28,10,43,120.00
2019,03,28,10,44,120.50
2019,03,28,10,45,121.00
2019,03,28,10,46,121.00
2019,03,28,10,47,122.90
2019,03,28,10,48,123.40
2019,03,28,10,49,125.00
2019,03,28,10,50,126.00
2019,03,28,10,51,127.00
2019,03,28,10,52,127.00
2019,03,28,10,53,127.10
2019,03,28,10,54,128.00
2019,03,28,10,55,128.00
2019,03,28,10,56,129.00
2019,03,28,10,57,130.00
2019,03,28,10,58,130.00
2019,03,28,10,59,130.00
2019,03,28,11,00,130.00
2019,03,28,11,01,130.00
2019,03,28,11,02,131.20
2019,03,28,11,03,132.00
2019,03,28,11,04,133.70
2019,03,28,11,05,134.00
2019,03,28,11,06,134.30
2019,03,28,11,07,135.80
2019,03,28,11,08,137.00
2019,03,28,11,09,138.50
2019,03,28,11,10,139.00
2019,03,28,11,11,139.30
2019,03,28,11,12,141.00
2019,03,28,11,13,141.00
2019,03,28,11,14,141.00
2019,03,28,11,15,141.00
2019,03,28,11,16,141.90
2019,03,28,11,17,142.00
2019,03,28,11,18,142.00
2019,03,28,11,19,143.00
2019,03,28,11,20,144.00
2019,03,28,11,21,145.60
2019,03,28,11,22,147.90
2019,03,28,11,23,149.00
2019,03,28,11,24,149.70
2019,03,28,11,25,151.00
2019,03,28,11,26,152.30
2019,03,28,11,27,155.30
2019,03,28,11,28,158.10
2019,03,28,11,29,162.20
2019,03,28,11,30,163.70
2019,03,28,11,31,167.10
2019,03,28,11,32,170.30
2019,03,28,11,33,173.40
2019,03,28,11,34,176.50
2019,03,28,11,35,181.50
2019,03,28,11,36,185.00
2019,03,28,11,37,190.20
2019,03,28,11,38,192.70
2019,03,28,11,39,194.70
2019,03,28,11,40,192.90
2019,03,28,11,41,191.50
2019,03,28,11,42,190.00
2019,03,28,11,43,188.90
2019,03,28,11,44,188.00
2019,03,28,11,45,188.00
2019,03,28,11,46,187.70
2019,03,28,11,47,186.00
2019,03,28,11,48,185.60
2019,03,28,11,49,185.00
2019,03,28,11,50,183.50
2019,03,28,11,51,183.00
2019,03,28,11,52,182.40
2019,03,28,11,53,179.00
2019,03,28,11,54,179.00
2019,03,28,11,55,179.00
2019,03,28,11,56,178.30
2019,03,28,11,57,178.00
2019,03,28,11,58,177.60
2019,03,28,11,59,176.00
2019,03,28,12,00,175.00
2019,03,28,12,01,174.00
2019,03,28,12,02,174.00
2019,03,28,12,03,172.10
2019,03,28,12,04,172.00
2019,03,28,12,05,172.00
2019,03,28,12,06,173.00
2019,03,28,12,07,174.00
2019,03,28,12,08,174.00
2019,03,28,12,09,173.90
2019,03,28,12,10,172.00
2019,03,28,12,11,171.60
2019,03,28,12,12,170.00
2019,03,28,12,13,167.70
2019,03,28,12,14,165.40
2019,03,28,12,15,163.00
2019,03,28,12,16,161.50
2019,03,28,12,17,160.00
2019,03,28,12,18,159.00
2019,03,28,12,19,158.00
2019,03,28,12,20,156.40
2019,03,28,12,21,154.80
2019,03,28,12,22,152.50
2019,03,28,12,23,150.20
2019,03,28,12,24,148.40
2019,03,28,12,25,146.60
2019,03,28,12,26,144.30
2019,03,28,12,27,141.90
2019,03,28,12,28,140.50
2019,03,28,12,29,138.10
2019,03,28,12,30,135.80
2019,03,28,12,31,135.00
2019,03,28,12,32,135.00
2019,03,28,12,33,135.00
2019,03,28,12,34,135.60
2019,03,28,12,35,137.00
2019,03,28,12,36,137.00
2019,03,28,12,37,137.00
2019,03,28,12,38,137.00
2019,03,28,12,39,136.70
2019,03,28,12,40,134.70
2019,03,28,12,41,133.00
2019,03,28,12,42,132.00
2019,03,28,12,43,132.00
2019,03,28,12,44,132.10
2019,03,28,12,45,134.20
2019,03,28,12,46,135.00
2019,03,28,12,47,134.50
2019,03,28,12,48,134.00
2019,03,28,12,49,132.40
2019,03,28,12,50,132.00
2019,03,28,12,51,132.00
2019,03,28,12,52,132.00
2019,03,28,12,53,133.00
2019,03,28,12,54,134.00
2019,03,28,12,55,134.80
2019,03,28,12,56,136.90
2019,03,28,12,57,137.00
2019,03,28,12,58,136.30
2019,03,28,12,59,135.00
2019,03,28,13,00,135.00
2019,03,28,13,01,136.70
2019,03,28,13,02,139.20
2019,03,28,13,03,141.00
2019,03,28,13,04,141.40
2019,03,28,13,05,142.00
2019,03,28,13,06,141.30
2019,03,28,13,07,141.90
2019,03,28,13,08,142.30
2019,03,28,13,09,144.00
2019,03,28,13,10,144.00
2019,03,28,13,11,144.00
2019,03,28,13,12,142.50
2019,03,28,13,13,141.10
2019,03,28,13,14,140.60
2019,03,28,13,15,139.70
2019,03,28,13,16,141.40
2019,03,28,13,17,143.20
2019,03,28,13,18,145.50
2019,03,28,13,19,148.70
2019,03,28,13,20,151.40
2019,03,28,13,21,153.00
2019,03,28,13,22,152.10
2019,03,28,13,23,151.00
2019,03,28,13,24,149.50
2019,03,28,13,25,148.10
2019,03,28,13,26,147.60
2019,03,28,13,27,146.00
2019,03,28,13,28,147.00
2019,03,28,13,29,148.00
2019,03,28,13,30,148.80
2019,03,28,13,31,150.90
2019,03,28,13,32,150.50
2019,03,28,13,33,148.60
2019,03,28,13,34,148.00
2019,03,28,13,35,146.70
2019,03,28,13,36,146.00
2019,03,28,13,37,147.90
2019,03,28,13,38,148.00
2019,03,28,13,39,148.00
2019,03,28,13,40,147.00
2019,03,28,13,41,143.30
2019,03,28,13,42,141.20
2019,03,28,13,43,139.10
2019,03,28,13,44,139.00
2019,03,28,13,45,139.80
2019,03,28,13,46,141.60
2019,03,28,13,47,142.00
2019,03,28,13,48,143.70
2019,03,28,13,49,144.30
2019,03,28,13,50,146.50
2019,03,28,13,51,148.40
2019,03,28,13,52,149.00
2019,03,28,13,53,151.90
2019,03,28,13,54,153.00
2019,03,28,13,55,158.70
2019,03,28,13,56,164.90
2019,03,28,13,57,171.20
2019,03,28,13,58,177.00
2019,03,28,13,59,182.10
2019,03,28,14,00,185.70
2019,03,28,14,01,190.50
2019,03,28,14,02,194.30
2019,03,28,14,03,198.40
2019,03,28,14,04,201.30
2019,03,28,14,05,205.90
2019,03,28,14,06,210.80
2019,03,28,14,07,214.70
2019,03,28,14,08,219.10
2019,03,28,14,09,224.10
2019,03,28,14,10,228.90
2019,03,28,14,11,233.10
2019,03,28,14,12,240.70
2019,03,28,14,13,245.30
2019,03,28,14,14,251.90
2019,03,28,14,15,257.50
2019,03,28,14,16,262.60
2019,03,28,14,17,266.40
2019,03,28,14,18,268.90
2019,03,28,14,19,268.10
2019,03,28,14,20,263.90
2019,03,28,14,21,261.00
2019,03,28,14,22,260.00
2019,03,28,14,23,257.60
2019,03,28,14,24,255.30
2019,03,28,14,25,258.80
2019,03,28,14,26,266.10
2019,03,28,14,27,270.10
2019,03,28,14,28,276.60
2019,03,28,14,29,286.70
2019,03,28,14,30,301.20
2019,03,28,14,31,294.70
2019,03,28,14,32,297.10
2019,03,28,14,33,301.60
2019,03,28,14,34,289.90
2019,03,28,14,35,279.60
2019,03,28,14,36,275.70
2019,03,28,14,37,273.40
2019,03,28,14,38,270.70
2019,03,28,14,39,267.80
2019,03,28,14,40,263.20
2019,03,28,14,41,258.30
2019,03,28,14,42,252.40
2019,03,28,14,43,248.70
2019,03,28,14,44,246.00
2019,03,28,14,45,244.80
2019,03,28,14,46,244.00
2019,03,28,14,47,244.00
2019,03,28,14,48,242.30
2019,03,28,14,49,238.30
2019,03,28,14,50,235.50
2019,03,28,14,51,234.00
2019,03,28,14,52,234.00
2019,03,28,14,53,234.00
2019,03,28,14,54,234.00
2019,03,28,14,55,233.20
2019,03,28,14,56,232.00
2019,03,28,14,57,230.70
2019,03,28,14,58,230.00
2019,03,28,14,59,228.80
2019,03,28,15,00,226.00
2019,03,28,15,01,221.90
2019,03,28,15,02,217.90
2019,03,28,15,03,214.00
2019,03,28,15,04,211.40
2019,03,28,15,05,205.70
2019,03,28,15,06,201.10
2019,03,28,15,07,198.20
2019,03,28,15,08,197.00
2019,03,28,15,09,195.60
2019,03,28,15,10,193.30
2019,03,28,15,11,191.60
2019,03,28,15,12,187.10
2019,03,28,15,13,183.20
2019,03,28,15,14,179.20
2019,03,28,15,15,175.20
2019,03,28,15,16,172.30
2019,03,28,15,17,170.40
2019,03,28,15,18,166.40
2019,03,28,15,19,164.00
2019,03,28,15,20,162.40
2019,03,28,15,21,162.00
2019,03,28,15,22,162.00
2019,03,28,15,23,162.00
2019,03,28,15,24,162.00
2019,03,28,15,25,162.00
2019,03,28,15,26,162.00
2019,03,28,15,27,162.00
2019,03,28,15,28,162.00
2019,03,28,15,29,161.60
2019,03,28,15,30,159.30
2019,03,28,15,31,157.00
2019,03,28,15,32,155.40
2019,03,28,15,33,153.40
2019,03,28,15,34,151.10
2019,03,28,15,35,150.60
2019,03,28,15,36,149.70
2019,03,28,15,37,151.00
2019,03,28,15,38,151.00
2019,03,28,15,39,152.60
2019,03,28,15,40,153.00
2019,03,28,15,41,153.00
2019,03,28,15,42,153.00
2019,03,28,15,43,153.00
2019,03,28,15,44,153.00
2019,03,28,15,45,151.40
2019,03,28,15,46,150.80
2019,03,28,15,47,148.70
2019,03,28,15,48,148.00
2019,03,28,15,49,146.90
2019,03,28,15,50,146.00
2019,03,28,15,51,146.00
2019,03,28,15,52,146.00
2019,03,28,15,53,146.00
2019,03,28,15,54,146.00
2019,03,28,15,55,147.20
2019,03,28,15,56,148.70
2019,03,28,15,57,149.00
2019,03,28,15,58,149.00
2019,03,28,15,59,149.00
2019,03,28,16,00,149.00
2019,03,28,16,01,148.40
2019,03,28,16,02,148.00
2019,03,28,16,03,146.20
2019,03,28,16,04,146.00
2019,03,28,16,05,145.40
2019,03,28,16,06,144.00
2019,03,28,16,07,144.00
2019,03,28,16,08,144.00
2019,03,28,16,09,144.00
2019,03,28,16,10,144.00
2019,03,28,16,11,143.30
2019,03,28,16,12,142.00
2019,03,28,16,13,142.00
2019,03,28,16,14,142.00
2019,03,28,16,15,141.10
2019,03,28,16,16,140.60
2019,03,28,16,17,138.30
2019,03,28,16,18,137.00
2019,03,28,16,19,137.00
2019,03,28,16,20,137.00
2019,03,28,16,21,137.10
2019,03,28,16,22,139.00
2019,03,28,16,23,139.80
2019,03,28,16,24,141.50
2019,03,28,16,25,144.70
2019,03,28,16,26,147.60
2019,03,28,16,27,149.20
2019,03,28,16,28,151.00
2019,03,28,16,29,151.80
2019,03,28,16,30,154.10
2019,03,28,16,31,155.70
2019,03,28,16,32,156.00
2019,03,28,16,33,158.20
2019,03,28,16,34,160.00
2019,03,28,16,35,160.80
2019,03,28,16,36,162.00
2019,03,28,16,37,160.60
2019,03,28,16,38,160.00
2019,03,28,16,39,160.00
2019,03,28,16,40,160.00
2019,03,28,16,41,160.00
2019,03,28,16,42,161.20
2019,03,28,16,43,162.00
2019,03,28,16,44,163.00
2019,03,28,16,45,165.30
2019,03,28,16,46,167.00
2019,03,28,16,47,167.90
2019,03,28,16,48,169.00
2019,03,28,16,49,169.00
2019,03,28,16,50,170.80
2019,03,28,16,51,171.20
2019,03,28,16,52,172.00
2019,03,28,16,53,172.00
2019,03,28,16,54,172.00
2019,03,28,16,55,172.00
2019,03,28,16,56,171.10
2019,03,28,16,57,171.00
2019,03,28,16,58,171.00
2019,03,28,16,59,171.00
2019,03,28,17,00,171.00
2019,03,28,17,01,171.80
2019,03,28,17,02,172.20
2019,03,28,17,03,174.00
2019,03,28,17,04,174.00
2019,03,28,17,05,174.00
2019,03,28,17,06,174.00
2019,03,28,17,07,175.60
2019,03,28,17,08,179.20
2019,03,28,17,09,181.50
2019,03,28,17,10,184.10
2019,03,28,17,11,186.00
2019,03,28,17,12,187.30
2019,03,28,17,13,188.00
2019,03,28,17,14,185.90
2019,03,28,17,15,184.00
2019,03,28,17,16,180.10
2019,03,28,17,17,177.30
2019,03,28,17,18,174.60
2019,03,28,17,19,171.40
2019,03,28,17,20,164.60
2019,03,28,17,21,160.80
2019,03,28,17,22,158.00